Weather Roundup
Issued by NWS

Home | Current Version | Previous Version | Text Only | Print | Product List | Glossary On
Versions: 1 2 3 4 5 6 7 8 9 10 11 12 13 14 15 16 17 18 19 20 21 22 23 24 25 26 27 28 29 30 31 32 33 34 35 36 37 38 39 40 41 42 43 44 45 46 47 48 49 50
000
NZUS93 KARX 191759
HRRWXR

CURRENT HOURLY OBSERVATIONS ACROSS
MUCH OF THE UPPER MISSISSIPPI VALLEY
NATIONAL WEATHER SERVICE LA CROSSE WI
1200 PM CST FRI DEC 19 2014


...SOUTHEAST MINNESOTA...


CITY           SKY/WX    TMP DP  RH WIND       PRES   REMARKS
ROCHESTER      CLOUDY    27  21  78 S9        30.23F WCI  18
ROCHESTER/MAYO CLOUDY    27  19  74 SE6       30.24S WCI  20
WINONA         CLOUDY    30  23  74 SE3       30.28F
AUSTIN         CLOUDY    27  23  86 S9        30.22F FOG     WCI  17
ALBERT LEA     PTSUNNY   28  27  93 S7        30.21F FOG     WCI  21
DODGE CENTER   CLOUDY    27  25  93 S10       30.22S WCI  17
PRESTON        CLOUDY    27  20  77 S7        30.24F WCI  19
OWATONNA       SUNNY     28  25  86 SE8       30.22S FOG     WCI  20
FARIBAULT      CLOUDY    28  25  86 S5        30.22S FOG     WCI  23
$$

...ELSEWHERE IN MINNESOTA...


CITY           SKY/WX    TMP DP  RH WIND       PRES   REMARKS
MINNEAPOLIS    CLOUDY    26  21  81 SE8       30.23F WCI  18
INTNL FALLS    LGT SNOW  23  18  81 SE9       30.14F WCI  13
DULUTH         LGT SNOW  23  18  81 S9        30.18F WCI  13
RED WING       CLOUDY    27  21  80 SE6       30.25S WCI  20
REDWOOD FALLS  CLOUDY    32  29  88 S12       30.15F FOG     WCI  23
MANKATO        CLOUDY    28  25  86 S8        30.21S WCI  20
WORTHINGTON    CLOUDY    30  27  86 SW18      30.14F WCI  18
FAIRMONT       CLOUDY    30  25  80 S13       30.19S WCI  20
$$

...SOUTHWEST WISCONSIN...


CITY           SKY/WX    TMP DP  RH WIND       PRES   REMARKS
LA CROSSE      CLOUDY    30  19  63 SW7       30.29F WCI  23
PRAIRIE DU CHI CLOUDY    28  19  70 SE5       30.30F WCI  23
BOSCOBEL       CLOUDY    29  19  66 CALM      30.31F
LONE ROCK      NOT AVBL
PLATTEVILLE    CLOUDY    27  20  76 CALM      30.30F
FORT MC COY    PTSUNNY   28  19  67 SE7       30.29F WCI  21
VIROQUA        CLOUDY    26  21  79 S7        30.26S WCI  19
WIS DELLS      NOT AVBL
$$

...ELSEWHERE IN WISCONSIN...


CITY           SKY/WX    TMP DP  RH WIND       PRES   REMARKS
MILWAUKEE      CLOUDY    30  18  60 SW7       30.29F WCI  23
MADISON        CLOUDY    26  19  74 CALM      30.29F
GREEN BAY      SUNNY     28  23  81 CALM      30.29F
EAU CLAIRE     NOT AVBL
BLACK RVR FLS  CLOUDY    27  19  70 SE5       30.27F WCI  22
MEDFORD        CLOUDY    22  19  90 S6        30.23F WCI  14
WAUSAU         CLOUDY    25  19  78 S5        30.24S WCI  19
WIS RAPIDS     CLOUDY    25  18  74 SE5       30.28F WCI  19
MARSHFIELD     CLOUDY    24  20  84 CALM      30.24F
RICE LAKE      CLOUDY    25  20  82 SE7       30.25F WCI  17
$$

...NORTHEAST IOWA...


CITY           SKY/WX    TMP DP  RH WIND       PRES   REMARKS
DECORAH        CLOUDY    27  19  74 S8        30.26S WCI  18
MASON CITY     CLOUDY    28  24  85 S9        30.24F WCI  19
CHARLES CITY   CLOUDY    28  23  80 SE8       30.26F WCI  20
OELWEIN        CLOUDY    27  21  80 S6        30.27F WCI  20
$$

...ELSEWHERE IN IOWA...


CITY           SKY/WX    TMP DP  RH WIND       PRES   REMARKS
DES MOINES     CLOUDY    32  27  81 S8        30.25F WCI  25
IOWA CITY      SUNNY     31  21  66 SE7       30.31F WCI  24
FORT DODGE     CLOUDY    30  27  86 S8        30.22F WCI  23
$$

...NORTHERN ILLINOIS...


CITY           SKY/WX    TMP DP  RH WIND       PRES   REMARKS
CHICAGO-OHARE  CLOUDY    31  21  66 N3        30.29F
CHICAGO-MIDWAY CLOUDY    33  23  66 N3        30.29F
MOLINE         SUNNY     30  19  63 E3        30.30F
ROCKFORD       CLOUDY    28  21  75 CALM      30.32F
PEORIA         SUNNY     32  19  58 E3        30.30F
$$

NOTE: "FAIR" INDICATES FEW OR NO CLOUDS BELOW 12,000 FEET WITH NO
SIGNIFICANT WEATHER AND/OR OBSTRUCTIONS TO VISIBILITY. WIND
SPEEDS ARE IN MILES-PER-HOUR.



USA.gov is the U.S. government's official web portal to all federal, state and local government web resources and services.